TAP339 LPHR-LPMA

Flight info

Callsign TAP339
Flight time 0h 29m
Altitude 27000
Route VSM H104 ETROX/N0436F390 DCT IBBAN
Aircraft A20N/M-SDE2E3FGHIRWXY/LB1

Departure

Time 2026-05-06 19:45
Airport Horta Airport (LPHR)

Arrival

Time 2026-05-06 20:14
Airport Cristiano Ronaldo International Airport (LPMA)
Time Latitude Longitude Altitude Speed Heading
2026-05-06 19:32 38.52093 -28.71610 112 ft 0 kts 165°
2026-05-06 19:41 38.52082 -28.71590 113 ft 4 kts 96°
2026-05-06 19:42 38.52073 -28.71518 114 ft 13 kts 126°
2026-05-06 19:42 38.51993 -28.71419 116 ft 22 kts 98°
2026-05-06 19:42 38.51995 -28.71202 118 ft 23 kts 90°
2026-05-06 19:42 38.51996 -28.71019 118 ft 19 kts 89°
2026-05-06 19:43 38.52000 -28.70851 121 ft 21 kts 88°
2026-05-06 19:43 38.52021 -28.70694 125 ft 14 kts 61°
2026-05-06 19:43 38.52009 -28.70644 124 ft 3 kts 197°
2026-05-06 19:43 38.51994 -28.70685 124 ft 10 kts 262°
2026-05-06 19:44 38.51994 -28.70705 122 ft 0 kts 269°
2026-05-06 19:44 38.51994 -28.70707 122 ft 5 kts 269°
2026-05-06 19:44 38.51992 -28.71099 118 ft 83 kts 270°
2026-05-06 19:44 38.51988 -28.72190 159 ft 152 kts 271°
2026-05-06 19:45 38.52024 -28.73403 1242 ft 137 kts 264°
2026-05-06 19:45 38.51888 -28.74692 1906 ft 159 kts 258°
2026-05-06 19:45 38.51361 -28.76088 2255 ft 194 kts 230°
2026-05-06 19:45 38.50048 -28.76946 2507 ft 238 kts 188°
2026-05-06 19:46 38.48378 -28.76442 3175 ft 262 kts 150°
2026-05-06 19:46 38.47171 -28.74702 4137 ft 272 kts 120°
2026-05-06 19:46 38.46356 -28.72513 5138 ft 275 kts 117°
2026-05-06 19:46 38.45505 -28.70294 6014 ft 280 kts 119°
2026-05-06 19:47 38.44549 -28.68094 6867 ft 285 kts 122°
2026-05-06 19:47 38.43514 -28.65910 7642 ft 292 kts 123°
2026-05-06 19:47 38.42411 -28.63698 8397 ft 300 kts 123°
2026-05-06 19:47 38.41256 -28.61443 9172 ft 307 kts 123°
2026-05-06 19:48 38.40064 -28.59149 9960 ft 314 kts 123°
2026-05-06 19:48 38.38828 -28.56787 10546 ft 328 kts 123°
2026-05-06 19:48 38.37536 -28.54330 11235 ft 334 kts 123°
2026-05-06 19:48 38.36250 -28.51880 12285 ft 331 kts 122°
2026-05-06 19:49 38.35102 -28.49316 13175 ft 334 kts 119°
2026-05-06 19:49 38.33974 -28.46708 13966 ft 339 kts 118°
2026-05-06 19:49 38.32855 -28.44037 14659 ft 344 kts 118°
2026-05-06 19:49 38.31754 -28.41357 15354 ft 348 kts 118°
2026-05-06 19:50 38.30635 -28.38606 16055 ft 353 kts 118°
2026-05-06 19:50 38.29502 -28.35812 16750 ft 357 kts 118°
2026-05-06 19:50 38.28360 -28.32999 17426 ft 361 kts 119°
2026-05-06 19:50 38.27190 -28.30123 18118 ft 366 kts 119°
2026-05-06 19:51 38.26018 -28.27249 18740 ft 370 kts 120°
2026-05-06 19:51 38.24817 -28.24312 19313 ft 374 kts 120°
2026-05-06 19:51 38.23611 -28.21368 19880 ft 378 kts 120°
2026-05-06 19:51 38.22387 -28.18382 20456 ft 382 kts 121°
2026-05-06 19:52 38.21144 -28.15354 21025 ft 387 kts 121°
2026-05-06 19:52 38.19904 -28.12337 21589 ft 391 kts 121°
2026-05-06 19:52 38.18638 -28.09259 22149 ft 395 kts 121°
2026-05-06 19:52 38.17360 -28.06154 22683 ft 399 kts 122°
2026-05-06 19:53 38.16063 -28.03006 23204 ft 403 kts 122°
2026-05-06 19:53 38.14757 -27.99839 23710 ft 408 kts 122°
2026-05-06 19:53 38.13432 -27.96631 24139 ft 411 kts 122°
2026-05-06 19:53 38.12097 -27.93398 24567 ft 414 kts 122°
2026-05-06 19:54 38.10749 -27.90140 24968 ft 418 kts 123°
2026-05-06 19:54 38.09381 -27.86841 25144 ft 429 kts 123°
2026-05-06 19:54 38.07960 -27.83426 25166 ft 445 kts 123°
2026-05-06 19:54 37.64114 -26.94212 25114 ft 32000 kts 122°
2026-05-06 19:55 37.18698 -26.02261 25198 ft 456 kts 125°
2026-05-06 19:55 36.86540 -25.08987 25190 ft 32000 kts 113°
2026-05-06 19:55 36.47360 -23.88129 25320 ft 470 kts 109°
2026-05-06 19:55 36.46263 -23.84381 25583 ft 459 kts 119°
2026-05-06 19:56 36.44436 -23.81105 25456 ft 469 kts 137°
2026-05-06 19:56 36.35652 -23.74714 25228 ft 462 kts 155°
2026-05-06 19:56 36.29734 -23.70917 25345 ft 458 kts 172°
2026-05-06 19:56 36.27417 -23.69116 25231 ft 477 kts 128°
2026-05-06 19:57 36.25609 -23.65569 25186 ft 493 kts 121°
2026-05-06 19:57 36.23951 -23.61793 25183 ft 505 kts 119°
2026-05-06 19:57 35.64280 -22.28650 25161 ft 32000 kts 119°
2026-05-06 19:57 34.35070 -19.43958 25125 ft 0 kts 119°
2026-05-06 19:58 33.71010 -17.97475 25150 ft 513 kts 115°
2026-05-06 19:58 33.72113 -17.92547 25144 ft 519 kts 103°
2026-05-06 19:58 33.70855 -17.88443 25110 ft 528 kts 115°
2026-05-06 19:58 33.68963 -17.84644 25126 ft 529 kts 121°
2026-05-06 19:59 33.66990 -17.80927 25128 ft 529 kts 121°
2026-05-06 19:59 33.65039 -17.77158 25128 ft 528 kts 120°
2026-05-06 19:59 33.63142 -17.73389 25127 ft 528 kts 119°
2026-05-06 19:59 33.61267 -17.69597 25128 ft 528 kts 118°
2026-05-06 20:00 33.59410 -17.65802 24967 ft 526 kts 118°
2026-05-06 20:00 33.57567 -17.62017 24733 ft 525 kts 118°
2026-05-06 20:00 33.55726 -17.58225 24466 ft 523 kts 118°
2026-05-06 20:00 33.53904 -17.54470 23870 ft 520 kts 118°
2026-05-06 20:01 33.52092 -17.50738 23082 ft 516 kts 118°
2026-05-06 20:01 33.50317 -17.47084 22368 ft 509 kts 118°
2026-05-06 20:01 33.48547 -17.43442 21665 ft 502 kts 118°
2026-05-06 20:01 33.46799 -17.39847 20965 ft 496 kts 118°
2026-05-06 20:02 33.45072 -17.36299 20272 ft 490 kts 118°
2026-05-06 20:02 33.43361 -17.32788 19579 ft 485 kts 118°
2026-05-06 20:02 33.41667 -17.29313 18900 ft 480 kts 118°
2026-05-06 20:02 33.39992 -17.25881 18189 ft 474 kts 118°
2026-05-06 20:03 33.38341 -17.22502 17483 ft 468 kts 118°
2026-05-06 20:03 33.36708 -17.19162 16802 ft 462 kts 118°
2026-05-06 20:03 33.35088 -17.15854 16105 ft 458 kts 119°
2026-05-06 20:03 33.33320 -17.12704 15469 ft 452 kts 125°
2026-05-06 20:04 33.31465 -17.09741 14863 ft 448 kts 126°
2026-05-06 20:04 33.29562 -17.06762 14223 ft 444 kts 126°
2026-05-06 20:04 33.27690 -17.03840 13528 ft 439 kts 126°
2026-05-06 20:04 33.25852 -17.00970 12885 ft 433 kts 127°
2026-05-06 20:05 33.24058 -16.98166 12286 ft 428 kts 127°
2026-05-06 20:05 33.22254 -16.95348 11681 ft 424 kts 127°
2026-05-06 20:05 33.20483 -16.92580 11072 ft 419 kts 127°
2026-05-06 20:05 33.18715 -16.89819 10511 ft 414 kts 127°
2026-05-06 20:06 33.16971 -16.87097 10364 ft 411 kts 127°
2026-05-06 20:06 33.15238 -16.84394 10251 ft 410 kts 127°
2026-05-06 20:06 33.13503 -16.81689 10105 ft 409 kts 127°
2026-05-06 20:06 33.11774 -16.78996 9551 ft 407 kts 127°
2026-05-06 20:07 33.10062 -16.76332 9066 ft 403 kts 127°
2026-05-06 20:07 33.08361 -16.73688 8601 ft 400 kts 127°
2026-05-06 20:07 33.06676 -16.71069 8155 ft 397 kts 127°
2026-05-06 20:07 33.05028 -16.68509 7738 ft 377 kts 127°
2026-05-06 20:08 33.03480 -16.66109 7283 ft 354 kts 126°
2026-05-06 20:08 33.02006 -16.63824 6655 ft 341 kts 126°
2026-05-06 20:08 33.00531 -16.61630 6373 ft 339 kts 133°
2026-05-06 20:08 32.98619 -16.60077 6124 ft 341 kts 159°
2026-05-06 20:09 32.96305 -16.59546 5804 ft 339 kts 176°
2026-05-06 20:09 32.93949 -16.59442 5413 ft 338 kts 179°
2026-05-06 20:09 32.91605 -16.59379 5033 ft 336 kts 179°
2026-05-06 20:09 32.89266 -16.59292 4654 ft 334 kts 178°
2026-05-06 20:10 32.86954 -16.59206 4199 ft 331 kts 181°
2026-05-06 20:10 32.84758 -16.59784 3800 ft 316 kts 207°
2026-05-06 20:10 32.82947 -16.61074 3542 ft 293 kts 216°
2026-05-06 20:10 32.81323 -16.62424 3261 ft 277 kts 217°
2026-05-06 20:11 32.79786 -16.63725 3031 ft 265 kts 217°
2026-05-06 20:11 32.79582 -16.66496 3054 ft 242 kts 219°
2026-05-06 20:11 32.78340 -16.67636 3036 ft 207 kts 223°
2026-05-06 20:11 32.77314 -16.68698 2827 ft 185 kts 224°
2026-05-06 20:12 32.76505 -16.69591 2163 ft 170 kts 225°
2026-05-06 20:12 32.75661 -16.70490 1850 ft 162 kts 225°
2026-05-06 20:12 32.74873 -16.71414 1528 ft 155 kts 229°
2026-05-06 20:12 32.74116 -16.72313 1211 ft 149 kts 227°
2026-05-06 20:13 32.73395 -16.73139 980 ft 141 kts 227°
2026-05-06 20:13 32.72694 -16.73975 833 ft 145 kts 228°
2026-05-06 20:13 32.71987 -16.74853 721 ft 149 kts 226°
2026-05-06 20:13 32.71262 -16.75710 480 ft 144 kts 230°
2026-05-06 20:14 32.70571 -16.76528 261 ft 141 kts 225°
2026-05-06 20:14 32.69927 -16.77287 183 ft 110 kts 224°
2026-05-06 20:14 32.69551 -16.77721 173 ft 34 kts 225°